カタログに戻る

TITAN 3C TRANSTAGE DEB

運用中MEO
NORAD 43447·DEBRIS·🇺🇸 United States

打ち上げ Feb 9, 1969 から Cape Canaveral Space Force Station

Loading…

次のパス (今後24時間)

TLE

最新Source: Space-Track

元期: Sep 13, 2026, 14:13 UTC

1 43447U 69013G   26256.59283431 -.00000088  00000-0  00000+0 0  9993
2 43447   1.5137  81.6155 0136311  27.1452 334.5220  0.97139757 30126

AllMySatでTITAN 3C TRANSTAGE DEBをリアルタイム追跡

Download on the App Store